TimeMST,TemperatureF,Dew PointF,Humidity,Sea Level PressureIn,VisibilityMPH,Wind Direction,Wind SpeedMPH,Gust SpeedMPH,PrecipitationIn,Events,Conditions,WindDirDegrees,DateUTC
12:53 AM,19.9,6.1,55,30.35,10.0,West,18.4,-,N/A,,Mostly Cloudy,260,2013-12-11 07:53:00
1:53 AM,19.9,6.1,55,30.34,10.0,SSW,31.1,41.4,N/A,,Clear,210,2013-12-11 08:53:00
2:53 AM,19.9,5.0,52,30.37,10.0,WSW,25.3,48.3,N/A,,Clear,250,2013-12-11 09:53:00
3:53 AM,21.0,5.0,50,30.34,10.0,SW,27.6,41.4,N/A,,Clear,220,2013-12-11 10:53:00
4:53 AM,21.0,5.0,50,30.35,10.0,WSW,26.5,43.7,N/A,,Clear,240,2013-12-11 11:53:00
5:53 AM,19.9,5.0,52,30.36,10.0,WSW,17.3,27.6,N/A,,Clear,250,2013-12-11 12:53:00
6:53 AM,21.9,5.0,48,30.35,10.0,SW,29.9,40.3,N/A,,Clear,230,2013-12-11 13:53:00
7:53 AM,21.0,5.0,50,30.36,10.0,SW,29.9,40.3,N/A,,Clear,220,2013-12-11 14:53:00
8:53 AM,21.0,6.1,53,30.35,9.0,WSW,32.2,43.7,N/A,,Clear,240,2013-12-11 15:53:00
9:19 AM,21.0,8.1,57,30.17,2.0,WSW,31.1,43.7,0.00,,Clear,240,2013-12-11 16:19:00
9:32 AM,19.9,9.0,62,30.17,1.2,SW,38.0,49.5,0.00,,Clear,220,2013-12-11 16:32:00
9:42 AM,21.0,8.1,57,30.19,2.0,SW,39.1,51.8,0.00,,Partly Cloudy,220,2013-12-11 16:42:00
9:50 AM,21.2,6.8,54,30.19,1.5,SW,29.9,59.8,0.00,Snow,Light Snow,220,2013-12-11 16:50:00
9:53 AM,21.9,8.1,55,30.35,1.8,WSW,23.0,59.8,0.00,Snow,Light Snow,240,2013-12-11 16:53:00
9:55 AM,21.0,8.1,57,30.19,3.0,SW,33.4,47.2,0.00,Snow,Light Snow,220,2013-12-11 16:55:00
10:40 AM,24.1,9.0,53,30.18,1.8,SW,38.0,52.9,0.00,,Clear,220,2013-12-11 17:40:00
10:44 AM,24.1,9.0,53,30.18,3.0,SW,34.5,50.6,0.00,,Clear,220,2013-12-11 17:44:00
10:53 AM,25.0,9.0,51,30.34,4.0,SW,32.2,49.5,0.00,,Haze,230,2013-12-11 17:53:00
11:53 AM,27.0,10.0,49,30.32,10.0,SW,29.9,47.2,N/A,,Clear,230,2013-12-11 18:53:00
12:53 PM,30.0,9.0,41,30.32,10.0,SW,25.3,48.3,N/A,,Clear,230,2013-12-11 19:53:00
1:53 PM,30.9,10.9,43,30.29,10.0,WSW,27.6,41.4,N/A,,Clear,240,2013-12-11 20:53:00
2:53 PM,30.9,10.9,43,30.30,10.0,WSW,33.4,43.7,N/A,,Clear,250,2013-12-11 21:53:00
3:53 PM,30.0,10.9,45,30.30,10.0,WSW,29.9,47.2,N/A,,Clear,240,2013-12-11 22:53:00
4:53 PM,28.9,10.9,47,30.31,10.0,WSW,27.6,51.8,N/A,,Clear,250,2013-12-11 23:53:00
5:53 PM,28.9,10.9,47,30.31,10.0,WSW,31.1,50.6,N/A,,Clear,240,2013-12-12 00:53:00
6:53 PM,28.9,10.9,47,30.30,10.0,SSW,39.1,63.3,N/A,,Clear,210,2013-12-12 01:53:00
7:53 PM,28.0,10.0,47,30.34,10.0,WSW,32.2,48.3,N/A,,Clear,250,2013-12-12 02:53:00
8:53 PM,28.0,10.9,49,30.31,10.0,WSW,32.2,46.0,N/A,,Clear,240,2013-12-12 03:53:00
9:53 PM,28.9,12.0,49,30.32,10.0,SW,38.0,55.2,N/A,,Scattered Clouds,230,2013-12-12 04:53:00
10:53 PM,30.0,12.0,47,30.31,10.0,SW,34.5,55.2,N/A,,Clear,220,2013-12-12 05:53:00
11:53 PM,30.0,12.9,49,30.29,10.0,SW,38.0,55.2,N/A,,Clear,220,2013-12-12 06:53:00